CAPE
586 718 819 849 834 810 782 712 652 648 730 840 882 1031 1114 1128 1156 1104 1223 1267 1262 1294 1387 1524 1609 1634 1617 1562 1483 1382 1220 1132 1126 1281 1139 1356 1338 1062 878 1202 1551 1179 1496 1822 1992 2042 1993 2089 2338 2425 2623 2722 2763 2834 2893 2993 3153 3137 2976 2862 2741 2415 1949
643 707 783 888 905 879 855 786 718 681 789 849 932 1042 1125 1144 1204 1170 1191 1284 1232 1220 1265 1432 1468 1482 1496 1447 1366 1272 1210 1168 1133 1290 1240 1080 1420 1432 1029 1015 1520 1556 1414 1786 1925 2046 2032 2014 2268 2328 2596 2711 2757 2835 2904 2996 3080 3121 3070 2913 2753 2586 2301
641 682 706 819 893 924 934 888 826 781 787 887 954 1088 1142 1170 1218 1241 1221 1293 1288 1202 1198 1320 1517 1406 1346 1303 1247 1220 1191 1178 1142 1199 1315 1217 1168 1510 1525 1207 1264 1679 1588 1789 1947 2022 2052 2023 2214 2277 2467 2677 2730 2825 2926 3019 3107 3118 3118 2994 2918 2759 2510
614 675 726 788 858 954 1028 1012 922 829 841 921 954 1096 1200 1222 1253 1297 1286 1278 1355 1278 1164 1173 1445 1471 1352 1284 1242 1221 1202 1214 1208 1203 1309 1346 1269 1365 1734 1596 1362 1440 1723 1768 2016 2039 2092 2030 2129 2279 2702 2603 2685 2763 2943 3014 3099 3176 3163 3090 2929 2780 2577
619 668 714 780 818 884 988 1049 989 898 849 937 981 1085 1228 1277 1302 1323 1349 1320 1350 1368 1277 1199 1160 1440 1437 1306 1240 1221 1220 1239 1278 1278 1310 1404 1412 1450 1777 1861 1638 1448 1558 1755 1996 2125 2168 2141 2111 2213 2410 2541 2665 2693 2883 3018 3058 3151 3203 3139 2962 2815 2684
684 730 734 793 882 922 967 1030 1050 1012 942 911 1027 1126 1236 1292 1319 1344 1372 1380 1368 1398 1388 1301 1219 1230 1434 1411 1324 1280 1265 1263 1293 1344 1368 1472 1569 1583 1765 2012 1925 1678 1512 1661 1933 2205 2273 2259 2200 2167 2278 2532 2660 2702 2762 2966 3060 3105 3143 3111 2965 2937 2867
771 814 808 792 903 1000 1061 1094 1092 1088 1049 1003 1050 1123 1256 1321 1356 1374 1398 1402 1398 1404 1440 1398 1318 1233 1281 1453 1432 1366 1338 1339 1336 1392 1423 1499 1661 1756 1788 2029 2154 1990 1726 1594 1866 2200 2381 2390 2317 2249 2224 2424 2617 2709 2735 2845 2988 3043 3086 3071 3024 2942 2894
830 866 861 841 903 999 1084 1156 1179 1163 1124 1072 1153 1205 1311 1346 1368 1403 1440 1449 1426 1398 1421 1452 1406 1312 1241 1392 1530 1518 1472 1467 1472 1482 1508 1531 1640 1839 1913 1990 2211 2249 2104 1836 1700 2091 2376 2505 2434 2372 2323 2368 2539 2671 2752 2806 2875 2962 3018 3031 2982 2938 2896
868 880 903 905 945 999 1043 1092 1154 1166 1134 1115 1232 1292 1354 1438 1424 1429 1456 1470 1462 1417 1411 1491 1499 1454 1420 1424 1535 1617 1601 1573 1599 1632 1653 1654 1660 1777 1944 2021 2122 2303 2306 2182 1845 1855 2184 2423 2560 2486 2428 2415 2464 2579 2672 2738 2793 2872 2934 2970 2991 2962 2905
884 883 893 930 948 1011 1071 1106 1149 1191 1177 1159 1285 1378 1405 1483 1528 1529 1515 1537 1529 1475 1467 1517 1566 1581 1564 1544 1572 1664 1719 1696 1680 1706 1765 1790 1782 1797 1902 2049 2066 2235 2387 2286 2071 1736 2002 2172 2267 2440 2466 2424 2468 2522 2587 2665 2736 2794 2870 2896 2924 2973 2969
897 911 884 906 948 988 1060 1120 1193 1255 1290 1265 1264 1401 1452 1488 1594 1618 1631 1644 1645 1581 1529 1541 1605 1658 1686 1684 1692 1734 1817 1850 1810 1785 1806 1890 1950 1953 1955 2019 2072 2099 2338 2425 2258 1986 1965 2117 2198 2217 2298 2318 2352 2506 2568 2620 2729 2802 2871 2916 2899 2911 2942
928 932 902 930 976 992 1063 1152 1236 1261 1253 1242 1264 1322 1462 1522 1634 1724 1753 1784 1821 1763 1679 1637 1647 1706 1754 1805 1818 1825 1870 1922 1943 1916 1893 1914 1997 2089 2090 2086 2105 2073 2095 2358 2430 2317 2177 2099 2192 2281 2308 2320 2296 2359 2546 2630 2711 2833 2913 2973 2978 2937 2925
959 984 970 985 1000 1034 1076 1108 1207 1302 1300 1230 1186 1263 1399 1498 1605 1784 1858 1883 1932 1940 1872 1799 1761 1780 1822 1881 1918 1934 1937 1951 1993 2012 1992 1978 2019 2114 2199 2206 2187 2145 2057 2078 2324 2410 2370 2270 2151 2244 2405 2462 2433 2367 2416 2604 2726 2835 2934 3012 3081 3087 3050
1061 964 985 985 993 1031 1065 1100 1203 1315 1338 1309 1270 1310 1473 1526 1590 1790 1972 2043 2082 2120 2110 2034 1943 1912 1901 1928 1986 2010 2033 2027 2035 2057 2065 2056 2064 2127 2230 2294 2279 2230 2139 1997 2043 2252 2348 2381 2311 2200 2270 2515 2598 2555 2449 2457 2627 2797 2909 2999 3097 3181 3182
860 911 962 942 967 1050 1074 1057 1170 1308 1350 1350 1335 1398 1633 1722 1760 1868 2045 2178 2259 2302 2330 2285 2179 2096 2031 2018 2032 2061 2104 2128 2113 2112 2129 2140 2138 2154 2229 2320 2355 2303 2221 2080 1964 1993 2154 2253 2347 2348 2238 2192 2407 2640 2638 2518 2466 2583 2792 2932 3014 3104 3184
758 801 830 802 839 939 991 985 1065 1232 1340 1376 1394 1443 1771 1956 1986 2055 2171 2245 2366 2481 2543 2532 2450 2344 2235 2155 2097 2063 2147 2199 2219 2210 2200 2205 2206 2203 2224 2287 2347 2342 2275 2164 2028 1905 1922 2036 2131 2244 2300 2233 2102 2128 2439 2636 2577 2489 2541 2782 2904 2962 3024
715 764 737 723 767 852 930 986 1014 1108 1255 1404 1472 1484 1762 2125 2243 2280 2381 2437 2492 2642 2802 2792 2727 2591 2486 2388 2316 2308 2249 2208 2280 2293 2278 2268 2252 2240 2229 2233 2279 2299 2267 2196 2095 1948 1843 1873 1960 2037 2144 2232 2201 2070 1956 2227 2648 2724 2608 2560 2706 2806 2872
728 772 738 704 741 784 822 946 1028 1082 1174 1322 1451 1502 1690 2092 2425 2552 2591 2638 2644 2715 3014 3135 3047 2926 2800 2626 2591 2554 2487 2349 2320 2345 2337 2302 2294 2265 2243 2212 2188 2190 2187 2124 2077 2025 1897 1779 1820 1926 2013 2081 2142 2150 2068 1957 2032 2524 2801 2771 2655 2634 2657
748 771 724 667 689 716 745 857 1046 1086 1094 1234 1314 1477 1678 1989 2388 2673 2778 2798 2801 2800 3083 3352 3380 3296 3171 3068 2870 2810 2734 2640 2538 2381 2382 2347 2309 2276 2252 2221 2164 2114 2083 2055 1977 1926 1944 1906 1780 1743 1846 2016 2099 2132 2176 2152 2041 2036 2383 2766 2860 2807 2728
778 755 694 630 609 637 663 840 1218 1438 1516 1693 1857 1910 2048 2384 2506 2639 2788 2896 2936 2957 3038 3368 3577 3590 3516 3423 3316 3167 3086 3030 2972 2883 2753 2547 2378 2320 2263 2212 2166 2100 2032 1986 1898 1801 1778 1884 1886 1778 1696 1782 1992 2138 2174 2254 2327 2296 2223 2351 2676 2892 2926
717 706 640 574 549 553 654 884 1240 1562 1728 1952 2328 2571 2720 2961 3021 3000 2997 3042 3081 3076 3102 3258 3547 3725 3748 3700 3622 3532 3449 3404 3347 3281 3192 3058 2828 2497 2366 2289 2218 2134 2053 1959 1862 1744 1670 1662 1789 1820 1781 1702 1719 1900 2110 2202 2292 2452 2528 2489 2452 2612 2836
1126 1068 1025 983 1014 1134 1237 1264 1317 1530 1791 1956 2289 2785 3050 3258 3464 3503 3391 3280 3258 3232 3218 3236 3359 3654 3816 3853 3827 3770 3719 3661 3606 3546 3462 3360 3222 2994 2660 2439 2370 2265 2139 2026 1922 1794 1651 1553 1701 1841 1871 1800 1706 1714 1874 2073 2195 2338 2520 2682 2728 2683 2684
1767 1684 1530 1489 1670 2146 2360 2372 2210 2143 2696 2704 2591 2714 3111 3335 3565 3717 3689 3610 3539 3490 3459 3429 3405 3380 3696 3835 3900 3906 3874 3828 3771 3699 3628 3534 3415 3261 3053 2728 2511 2435 2299 2152 2016 1930 1828 1730 1724 1938 2092 2121 2021 1878 1897 2030 2194 2358 2448 2578 2746 2826 2857
3488 3206 2738 2281 1990 2434 3094 3399 3362 3585 3118 3080 2994 2958 3036 3232 3525 3778 3862 3824 3725 3667 3628 3558 3520 3499 3479 3707 3816 3898 3930 3918 3864 3814 3746 3642 3524 3401 3252 3050 2757 2526 2469 2362 2216 2076 1947 1877 1798 1855 2142 2326 2402 2339 2213 2183 2313 2516 2646 2677 2728 2818 2848
3166 3262 3254 3255 3234 3254 3742 3800 3771 3733 3601 3658 3587 3457 3366 3430 3493 3697 3892 3948 3946 3880 3817 3783 3725 3673 3626 3576 3703 3820 3911 3954 3944 3892 3815 3722 3609 3504 3376 3220 3027 2780 2561 2511 2388 2276 2132 2034 1959 1918 2003 2252 2513 2655 2620 2537 2494 2606 2838 2983 3007 2984 2986
3818 4062 4128 4103 3962 3712 3505 3359 3899 4048 4374 4323 4191 4233 4120 4022 3730 3667 3755 3911 4002 4028 4002 3961 3889 3840 3778 3717 3686 3697 3836 3927 3943 3912 3850 3771 3684 3588 3471 3340 3182 3018 2783 2547 2469 2390 2309 2215 2144 2130 2128 2122 2277 2570 2848 2924 2923 2858 2834 2958 3147 3211 3236
3729 3870 4252 4540 4379 4379 4107 4064 4101 4176 4268 4286 4110 4120 4254 3512 3471 3879 3820 3767 3882 3981 4031 4018 3974 3948 3917 3867 3826 3784 3745 3871 3921 3912 3860 3794 3730 3652 3558 3429 3309 3155 2954 2673 2533 2510 2424 2327 2250 2231 2272 2291 2327 2329 2458 2733 3030 3162 3160 3135 3064 3127 3304
3039 3187 3500 3894 4743 4223 3439 3627 3685 3867 4021 4259 4387 4085 3905 3998 4292 3513 3144 3523 3729 3787 3760 3792 3854 3902 3918 3912 3883 3835 3788 3778 3907 3917 3886 3828 3771 3714 3610 3501 3390 3239 3074 2882 2651 2704 2626 2536 2424 2335 2304 2362 2461 2539 2571 2663 2854 3035 3170 3245 3280 3276 3262
2878 2986 3194 3434 3654 4129 3718 3533 3865 3997 3986 4050 4028 4201 4124 3879 3706 4014 4591 3975 3087 3138 3368 3498 3539 3577 3776 3939 3793 3742 3755 3841 3917 3942 3917 3877 3817 3748 3669 3584 3472 3352 3204 3056 2827 2940 2892 2801 2684 2564 2459 2762 2897 2881 2878 2924 2996 3069 3118 3237 3346 3423 3470
2874 2877 2983 3093 3272 3588 3658 3477 3675 3943 4001 4069 4189 4161 4279 4480 4166 3895 4144 3912 4030 4058 3534 3040 3105 3195 3772 4091 4051 3964 3929 3962 3988 3975 3954 3930 3900 3849 3865 3852 3720 3571 3436 3273 3108 3206 3229 3172 3089 2933 2820 2974 3411 3711 3693 3516 3538 3379 3301 3318 3378 3471 3525
2627 2630 2690 2808 3005 3472 3100 3272 3426 3537 3660 3880 4204 4389 4418 4505 4584 4347 3909 3718 4326 4611 4172 3562 3106 3014 3644 4061 4191 4210 4231 4236 4253 4196 4214 4234 4212 4183 4185 4213 4087 3918 3776 3622 3538 3535 3521 3537 3494 3404 3174 3034 3327 3858 4144 4207 4192 4146 4132 4113 4098 4052 4068
2754 2935 3003 3075 3124 3045 3012 3243 3332 3096 3118 3162 4071 4408 4420 4534 4398 4513 4568 4752 4963 5254 4754 3882 3409 3151 3454 3968 4190 4308 4478 4601 4641 4607 4596 4611 4566 4504 4509 4538 4471 4313 4175 3980 3860 3841 3820 3832 3764 3757 3692 3601 3444 3725 3840 3998 4158 4325 4394 4427 4426 4458 4454
2686 2824 2906 3010 3137 3204 2963 2962 2946 2927 2914 2952 3194 4241 4445 4434 4352 4383 4397 4855 5432 5212 4894 4262 3635 3312 3464 3974 4193 4318 4578 4850 4987 5012 4983 4936 4900 4846 4819 4791 4736 4677 4560 4440 4367 4312 4320 4310 4281 4221 4126 4156 4134 4078 3996 3910 3826 3840 3946 4000 4085 4186 4267
2538 2720 2784 2849 2893 2911 2949 2960 2927 2803 2704 2649 2702 3261 4217 4388 4394 4344 4335 4647 5121 5436 4772 4357 3920 3526 3698 4087 4295 4386 4616 4941 5681 5442 5251 5262 5226 5152 5089 5011 5054 4988 4900 4859 4801 4773 4729 4686 4644 4572 4457 4442 4396 4345 4275 4212 4121 3977 3863 3747 3672 3598 3602
2488 2628 2723 2864 2860 2803 2810 2826 2796 2710 2648 2508 2394 2427 3174 4106 4373 4345 4290 4476 4915 5302 5123 4582 4139 3792 4042 4363 4490 4533 4700 4992 5366 5350 5349 5398 5376 5342 5310 5296 5287 5216 5216 5148 5119 5036 4984 4908 4853 4746 4640 4584 4551 4512 4459 4362 4282 4121 3950 3867 3771 3740 3718
2199 2357 2641 2713 2697 2680 2629 2555 2532 2476 2380 2232 2221 2287 2472 2994 3825 4236 4292 4402 4746 4891 5108 4699 4350 4209 4384 4597 4634 4695 4823 5104 5266 5310 5312 5324 5356 5366 5368 5350 5339 5308 5262 5275 5187 5146 5064 4949 4924 4875 4830 4800 4737 4654 4624 4464 4246 4120 4124 4031 3918 3814 3636
1870 2030 2397 2546 2551 2477 2445 2372 2248 2084 2138 2252 2177 2252 2451 2641 3133 3542 4029 4234 4680 4758 5000 4905 4660 4500 4569 4745 4762 4842 4928 5083 5152 5213 5193 5159 5194 5203 5226 5184 5255 5347 5289 5206 5200 5135 5111 5026 4969 4941 4947 4943 4827 4618 4271 4063 4040 4014 3995 3925 3753 3587 3562
1496 1780 2271 2437 2431 2356 2248 2132 1963 1970 2116 2168 2188 2237 2362 2505 2779 3208 3612 3816 4586 4472 4716 5001 4803 4640 4674 4805 4894 4977 4997 5059 5074 5054 5037 4976 4953 4961 4953 4939 5000 5034 5072 4984 4985 5059 5125 5117 5031 4851 4771 4704 4750 4684 4328 3985 3774 3729 3705 3721 3672 3591 3512
Wind_Speed
10 7 7 9 12 15 18 19 18 18 18 16 15 12 10 8 9 10 9 9 7 6 6 6 5 4 3 3 2 2 3 4 5 6 7 6 5 3 3 4 4 4 4 5 8 8 9 8 9 10 11 13 14 14 15 14 15 15 15 14 14 14 14
7 6 7 9 11 13 16 17 18 18 17 16 15 13 8 8 9 10 8 8 8 7 7 7 5 4 4 4 4 3 3 4 5 7 7 7 7 6 5 4 4 4 5 6 7 7 5 7 7 8 9 10 12 12 13 14 15 15 15 15 16 16 15
10 9 9 8 12 15 17 16 17 17 17 15 14 12 9 8 9 10 9 8 8 7 8 7 6 5 6 5 5 3 3 5 6 6 6 6 4 4 6 5 5 5 6 6 6 4 4 5 5 6 8 9 10 11 11 12 14 15 15 16 16 17 17
16 13 12 11 14 17 16 15 17 17 16 15 14 13 10 9 8 9 9 10 10 9 8 8 8 8 9 7 5 4 4 5 6 6 6 6 5 6 6 7 6 5 6 6 5 3 2 3 5 5 7 8 9 10 11 12 13 14 15 16 16 17 17
17 15 13 10 12 14 12 10 13 16 17 15 14 13 11 9 9 8 9 10 11 10 9 9 9 10 11 8 9 8 6 6 7 8 7 7 7 7 8 7 6 5 5 4 4 2 1 3 5 6 6 8 9 10 11 12 13 14 15 17 16 16 16
15 13 12 10 12 12 10 10 14 18 18 15 14 12 9 9 8 9 9 10 10 11 10 10 9 9 9 7 7 8 9 9 9 8 7 7 7 8 9 8 7 5 4 3 2 0 3 5 7 8 9 9 11 12 12 13 13 14 15 16 16 16 16
11 10 10 11 11 10 8 10 14 17 15 13 11 9 8 8 9 9 9 9 11 13 11 9 8 8 7 7 5 6 5 6 8 7 7 7 8 9 9 9 7 5 4 4 2 3 5 7 9 10 11 12 13 14 14 14 14 14 15 15 16 16 16
7 8 8 9 10 9 9 12 14 14 14 12 11 7 6 7 8 9 8 9 11 11 9 8 6 5 5 5 4 3 5 6 8 8 8 7 8 8 9 8 7 5 4 1 1 5 6 8 9 11 12 13 14 14 15 15 15 15 16 16 16 16 16
4 7 7 8 9 9 10 12 13 14 14 13 10 7 5 6 7 8 8 9 9 9 7 6 5 4 4 4 4 3 5 7 8 8 7 7 8 8 8 8 7 6 4 2 3 4 6 7 9 10 12 12 13 13 14 15 15 15 16 16 16 16 16
5 8 7 8 9 9 9 11 13 14 12 10 8 5 5 5 5 6 7 7 7 6 6 5 4 5 5 4 5 5 7 7 8 7 7 7 8 7 7 7 7 6 4 3 4 4 5 6 7 8 9 10 11 12 13 14 15 16 16 16 16 16 16
5 7 10 11 10 10 12 13 13 10 9 7 5 4 4 4 4 5 6 6 6 5 5 5 5 5 4 4 4 5 5 6 7 7 7 7 8 6 6 6 5 5 3 3 3 4 5 4 6 6 8 8 9 11 12 14 16 17 16 15 15 15 15
6 10 12 12 11 14 12 10 10 8 5 3 1 3 4 2 1 2 4 4 6 7 6 5 5 4 5 5 4 3 3 4 5 5 5 5 5 4 4 4 3 3 2 2 3 4 5 6 7 8 9 10 10 11 12 13 14 16 17 17 15 13 12
8 11 13 11 12 11 11 12 8 5 2 1 1 2 2 1 1 2 3 5 6 7 6 5 4 4 4 4 3 3 2 2 3 4 3 3 3 4 4 3 2 1 1 3 4 5 6 7 8 8 10 11 12 12 13 13 14 14 15 15 15 13 11
10 11 12 11 11 11 10 8 7 6 4 3 2 2 1 1 2 2 3 3 5 6 7 6 5 5 4 4 4 3 3 3 4 5 4 5 4 3 3 2 1 0 1 3 5 6 7 7 8 8 9 11 12 13 13 13 13 13 13 14 14 12 10
11 9 9 8 6 8 8 8 9 7 6 5 3 2 0 0 1 2 3 2 3 4 5 7 6 5 4 4 3 3 5 6 6 7 6 5 5 3 2 1 1 1 2 4 5 5 7 7 7 7 8 9 11 13 13 13 13 13 13 12 12 11 10
11 10 7 3 5 6 8 7 8 8 7 6 3 2 1 2 5 7 7 6 3 1 4 6 5 5 4 3 3 5 6 6 7 7 7 5 4 4 3 2 2 3 4 5 6 7 7 7 7 8 8 9 10 11 12 12 11 13 17 15 11 10 9
9 9 6 1 5 4 7 10 11 9 7 4 2 1 2 3 5 7 7 7 6 3 2 2 1 1 1 2 4 5 6 6 6 7 6 5 5 4 3 3 3 3 4 4 5 7 7 7 7 8 8 10 11 11 10 10 10 15 15 16 16 11 9
7 7 4 2 5 5 9 12 13 10 5 3 2 2 2 1 1 3 5 5 5 4 2 3 4 4 3 2 3 4 5 5 6 6 5 6 5 5 5 5 5 5 5 5 5 5 5 6 7 7 8 9 10 10 9 8 11 14 15 16 16 14 9
4 4 1 2 3 5 7 8 9 7 5 5 3 2 3 1 2 1 1 1 0 0 2 4 5 5 5 3 2 2 3 5 6 6 6 6 6 7 8 7 6 6 5 5 5 5 5 5 6 6 7 8 9 8 8 7 11 13 14 14 15 14 11
4 3 2 1 1 3 7 10 11 9 7 6 4 2 3 4 3 3 4 5 5 2 0 2 4 4 5 4 5 5 4 5 6 7 7 8 9 10 9 8 7 7 6 6 7 5 4 3 4 4 6 7 7 6 6 7 8 12 12 12 13 13 11
7 5 5 7 8 8 10 11 12 13 13 12 11 11 11 10 9 11 11 10 7 5 4 3 3 3 2 2 4 5 5 6 7 7 8 10 10 11 10 9 8 8 8 8 6 5 4 3 2 3 5 6 5 3 3 3 8 9 12 12 12 13 11
10 7 6 9 11 11 11 10 11 12 13 17 18 17 14 13 15 15 13 12 10 9 7 6 5 4 3 1 3 6 6 6 6 6 8 9 10 10 11 10 9 9 9 7 6 6 5 3 1 1 2 3 4 3 4 3 7 9 10 11 11 12 6
19 16 14 14 14 14 13 11 12 15 21 23 20 18 15 17 17 16 16 14 12 10 8 7 5 4 3 2 4 7 8 8 8 8 8 9 9 9 10 9 8 8 10 7 5 5 4 2 1 1 0 2 3 3 3 4 3 8 10 11 13 10 6
32 28 24 23 24 24 23 21 20 18 17 19 20 19 22 21 20 19 17 14 13 11 9 7 4 4 4 3 6 9 11 11 11 11 10 10 10 9 8 9 9 10 11 7 5 4 3 4 4 3 2 0 1 1 1 2 1 8 10 13 16 15 10
37 34 31 29 27 27 27 24 22 21 20 21 24 27 24 20 19 19 16 15 13 11 9 6 4 4 5 6 8 10 12 13 13 13 12 11 10 9 9 9 10 12 13 9 8 6 8 9 7 5 4 3 3 1 1 1 4 11 14 17 19 19 14
41 38 35 31 30 28 27 26 27 29 28 28 27 27 28 23 20 17 15 15 15 12 8 6 6 9 11 10 9 11 13 14 15 14 13 12 11 10 10 10 12 14 13 10 10 9 10 9 8 6 7 8 7 7 4 3 6 11 16 19 21 24 19
40 38 37 34 31 31 31 29 28 28 28 27 29 30 28 25 20 18 18 17 15 10 8 11 15 16 14 12 11 12 14 15 16 16 14 13 13 13 12 12 12 13 14 12 12 12 11 9 9 10 10 11 10 9 9 9 9 10 16 17 20 22 21
44 42 40 36 35 33 32 31 30 30 30 29 30 29 29 28 27 23 20 18 14 11 16 20 19 18 17 14 12 13 14 15 17 18 17 16 16 14 13 13 13 14 14 14 13 11 10 11 11 12 13 13 12 11 11 12 11 13 14 19 21 23 24
48 44 43 41 38 35 33 30 29 28 27 28 30 30 29 29 28 28 26 21 18 21 23 21 20 18 17 15 14 15 16 17 18 19 20 19 18 17 15 15 14 14 14 13 13 12 12 11 12 13 14 15 14 15 15 15 13 16 16 18 22 24 25
47 45 44 42 38 35 33 30 27 26 26 27 29 29 29 28 28 27 28 26 26 25 24 22 21 22 20 18 16 18 19 20 20 21 22 23 22 20 19 18 16 15 14 14 13 14 13 14 14 15 15 15 17 18 18 19 21 23 23 20 18 19 20
47 44 42 40 38 36 34 32 28 25 26 28 29 28 28 27 25 24 24 26 29 28 26 25 26 25 23 22 21 21 23 24 24 23 24 25 26 23 21 20 19 16 15 16 16 15 15 15 16 15 17 19 21 24 26 26 26 26 27 28 28 27 27
48 46 43 40 38 36 35 35 33 30 29 30 30 29 28 27 27 27 25 26 26 24 24 25 25 24 24 25 26 26 27 28 28 27 27 28 27 26 24 23 21 18 17 17 17 17 16 17 19 19 20 22 24 27 28 28 29 29 29 31 32 31 31
47 46 45 43 39 38 39 38 37 34 30 29 27 28 28 29 28 28 27 28 27 23 23 23 22 22 24 25 27 29 29 29 31 32 33 32 30 29 28 26 23 21 19 18 18 19 19 21 22 22 24 25 28 31 30 30 30 30 30 31 34 34 35
47 49 47 45 44 44 44 43 41 38 35 32 29 29 30 30 29 29 29 29 29 26 24 24 23 23 23 25 28 29 29 30 33 35 37 38 37 35 33 30 26 23 21 20 20 21 22 24 23 24 26 29 33 33 33 32 32 32 33 34 36 37 38
45 47 47 47 46 46 46 45 44 42 40 35 32 32 32 31 30 30 29 29 28 28 26 25 25 25 25 26 28 28 30 32 34 37 40 43 46 47 44 39 34 30 28 26 25 21 24 24 25 27 31 36 36 37 36 34 34 33 34 38 38 39 40
43 44 43 42 43 45 46 45 44 43 42 37 36 36 34 32 31 30 29 29 29 29 29 27 28 27 26 26 27 30 32 34 35 36 38 39 42 44 47 51 51 42 33 29 31 34 34 32 32 34 40 42 40 36 37 36 36 40 43 43 44 44 44
43 41 39 40 43 43 44 45 44 44 43 40 38 38 35 34 33 32 31 31 30 30 31 30 30 29 28 29 29 30 33 34 35 35 37 38 41 43 45 46 50 54 51 44 41 43 49 50 50 47 44 46 43 44 50 50 48 45 43 44 44 46 48
45 41 40 41 42 41 42 43 44 44 41 41 40 39 36 35 35 34 33 32 31 32 33 33 33 33 33 33 33 34 35 35 37 37 37 37 38 42 44 47 48 50 52 52 51 52 53 54 55 55 54 54 53 49 46 47 47 46 46 46 47 47 49
Wind_Direction
320 319 323 311 314 321 323 324 325 328 333 336 330 324 320 305 293 280 279 283 300 296 277 266 264 239 252 217 210 189 140 125 139 152 161 167 164 140 128 134 124 130 129 100 92 75 67 58 44 37 35 31 28 27 23 18 19 22 20 15 12 10 10
282 268 295 305 316 322 324 324 319 318 327 334 328 323 317 317 296 291 287 287 300 299 272 258 249 222 223 214 197 176 150 125 137 160 166 172 173 160 146 138 122 130 122 105 98 91 72 58 36 25 22 19 18 14 11 7 4 7 11 10 9 10 8
294 274 282 301 319 321 322 322 321 320 324 324 323 319 322 320 309 309 291 278 285 276 257 256 250 233 217 209 197 173 151 150 151 154 160 158 141 138 148 144 128 125 117 119 114 107 78 49 39 18 5 4 4 0 358 354 351 352 356 358 1 3 6
304 301 299 316 323 315 318 326 328 322 316 321 325 323 319 321 305 292 280 279 283 276 269 253 248 238 225 209 191 181 153 144 147 155 155 155 137 139 150 145 138 131 140 118 117 112 78 31 18 6 354 347 346 345 342 345 341 340 341 342 350 354 359
308 309 301 288 283 284 297 314 325 326 319 319 322 315 316 316 296 278 272 275 288 297 286 273 249 242 230 217 192 182 163 155 161 164 163 153 139 141 139 136 133 120 113 139 139 124 16 347 350 341 338 333 333 329 334 332 333 331 330 330 334 339 346
303 292 274 254 255 272 297 319 327 327 317 316 322 317 307 301 285 297 290 285 289 287 277 272 272 264 258 242 207 186 178 167 165 167 163 145 134 134 136 140 139 133 135 109 185 233 322 321 327 327 327 325 325 324 324 323 325 323 323 321 324 325 331
295 290 265 245 246 261 291 309 317 316 307 306 306 297 296 297 303 305 293 299 299 296 295 301 301 288 276 259 229 201 172 160 165 161 159 143 137 137 139 147 148 143 135 187 220 277 308 315 320 320 322 322 320 322 321 321 322 317 314 314 317 317 322
285 266 250 237 243 255 276 295 304 297 284 274 276 280 312 311 296 293 302 301 298 297 299 306 295 289 280 258 239 209 168 161 166 164 163 147 142 136 138 146 153 157 176 177 260 276 299 309 308 310 316 317 319 320 321 320 321 317 312 314 314 316 311
252 277 257 232 244 259 278 290 289 278 278 285 296 298 311 305 306 309 311 298 292 301 308 302 304 275 249 233 214 183 178 178 172 172 163 152 154 143 144 151 160 178 185 208 241 262 282 295 304 309 314 317 318 320 320 321 320 317 316 317 319 320 318
234 230 221 228 244 258 270 265 255 249 261 275 281 291 311 314 319 299 284 287 283 304 307 294 272 257 243 214 191 188 189 182 177 176 171 166 169 157 153 160 169 189 200 226 248 279 284 296 309 309 316 322 321 322 322 322 320 318 320 325 326 326 327
253 247 227 215 222 235 242 241 241 248 269 282 296 320 331 334 314 291 294 280 280 280 284 280 267 269 255 228 209 198 190 183 185 182 179 179 185 166 163 164 178 200 215 244 275 299 297 303 308 317 321 325 328 326 324 325 323 321 322 324 328 335 333
246 239 229 227 225 232 245 247 241 250 264 256 317 7 8 354 291 278 269 275 260 256 259 270 265 276 260 244 235 208 198 190 193 189 185 187 187 174 177 186 194 213 226 268 308 310 315 320 314 321 330 331 334 333 330 325 322 323 325 328 330 333 335
231 231 235 237 232 235 242 232 243 268 268 192 70 53 34 2 209 207 222 240 247 246 253 260 266 269 272 273 278 249 247 217 201 209 203 197 190 191 197 198 196 235 321 309 327 330 328 327 327 321 327 334 334 337 336 332 327 325 325 325 326 330 333
244 237 236 235 227 240 257 260 246 241 232 203 144 121 163 176 180 179 197 233 246 245 241 229 243 262 276 285 291 287 289 255 233 227 216 210 208 201 205 201 188 310 333 323 345 346 342 338 339 330 323 330 332 337 333 329 327 327 327 325 326 328 332
265 264 256 237 223 240 258 243 215 222 230 212 176 150 175 168 108 140 136 162 229 235 238 229 225 230 242 257 280 284 268 254 246 238 232 228 221 217 216 215 239 306 336 342 352 346 349 342 338 332 328 327 329 332 328 327 330 327 330 330 333 332 340
272 279 272 225 176 207 229 207 198 216 234 221 196 147 81 46 46 44 42 43 38 192 224 229 221 222 220 226 237 242 252 262 257 256 253 244 237 234 242 250 287 324 346 355 355 353 346 341 335 331 331 332 334 331 325 328 327 344 356 350 339 342 344
276 285 296 107 134 169 203 190 185 206 224 216 193 75 38 38 40 40 36 37 43 64 167 206 175 157 166 175 224 238 251 258 264 267 275 269 255 253 271 303 299 312 331 344 348 353 346 341 342 334 328 335 336 338 332 332 338 2 358 5 8 357 356
283 277 303 68 104 155 201 196 191 194 189 149 128 114 121 130 78 39 36 25 34 50 84 75 75 67 79 124 224 243 259 257 261 267 276 273 285 289 290 288 300 312 321 330 337 332 332 348 349 336 330 329 335 340 341 341 1 7 6 9 14 11 9
279 264 309 42 107 148 173 192 193 191 185 182 157 118 88 133 190 78 29 355 340 211 60 60 69 68 60 45 26 356 304 283 282 282 274 278 277 270 268 284 302 312 313 328 312 294 324 353 345 341 335 333 333 343 354 357 10 11 9 10 13 15 17
261 218 190 202 212 166 159 173 181 184 188 187 180 186 203 193 157 171 210 219 222 237 118 88 93 82 57 33 26 23 4 344 332 321 308 289 283 281 286 294 309 304 293 280 281 299 316 321 349 344 339 338 339 352 5 14 16 8 9 8 12 13 8
226 216 208 203 209 206 189 176 177 183 187 187 193 203 206 190 183 200 206 208 208 207 202 178 152 134 104 26 1 354 2 5 356 342 323 312 306 305 308 307 296 292 288 286 292 293 294 303 347 5 347 345 353 10 22 35 24 2 7 8 9 13 1
229 243 239 220 231 228 218 200 191 192 192 198 204 203 200 194 199 205 203 203 202 202 201 200 190 183 192 241 319 322 326 337 340 335 323 317 315 320 322 313 303 298 285 275 261 253 255 249 222 51 352 338 353 21 64 71 23 4 2 3 7 2 344
234 230 230 220 232 233 226 221 209 201 204 207 208 210 203 205 207 207 207 206 198 200 203 202 195 201 224 245 281 298 304 309 318 322 322 319 323 329 324 310 296 277 261 256 248 251 262 267 247 204 278 345 342 19 70 102 16 352 354 352 355 332 336
225 224 221 216 214 217 218 211 206 205 211 210 209 211 212 213 213 210 209 208 205 207 206 201 184 214 240 261 272 282 288 295 305 312 313 316 328 330 317 297 273 266 256 247 235 226 221 216 209 204 190 94 18 358 64 103 320 328 337 342 342 338 334
225 225 224 219 218 216 211 205 204 206 208 209 208 203 210 220 220 215 208 206 209 212 212 201 209 239 254 257 262 274 281 286 295 303 308 314 321 319 312 295 277 262 251 235 222 208 207 208 203 194 190 183 181 134 64 177 265 313 330 338 337 334 324
222 222 222 220 216 216 216 212 210 211 209 204 194 195 205 208 213 214 209 207 211 211 201 208 232 241 243 251 258 263 272 276 288 295 300 306 309 307 305 285 267 262 259 242 222 211 209 206 201 193 192 197 200 204 213 242 258 294 331 333 335 334 320
219 219 221 218 215 213 217 215 215 215 210 201 196 195 195 202 204 199 202 208 210 198 195 216 229 236 241 244 249 256 268 273 285 295 295 295 298 301 302 294 282 266 259 247 226 212 209 209 206 202 197 204 211 213 227 251 264 284 320 324 327 329 323
216 217 219 218 215 214 214 212 209 207 204 200 198 195 194 197 199 198 202 203 190 182 206 221 226 229 235 242 245 248 257 269 277 286 287 288 288 289 295 296 289 273 263 248 233 220 213 214 210 205 205 213 222 229 238 255 289 272 306 318 321 323 328
220 219 219 217 213 211 214 211 207 205 201 199 200 198 196 199 199 197 197 196 184 199 211 216 222 228 232 237 240 242 247 253 269 275 274 279 285 290 296 297 297 283 267 254 236 224 220 219 217 213 213 221 230 239 247 254 267 303 298 314 319 322 323
225 222 220 218 215 211 211 209 205 204 202 201 201 200 199 202 199 199 195 188 192 202 208 216 219 221 226 230 234 239 240 245 253 264 271 280 283 285 288 293 296 288 269 255 242 232 229 227 226 225 226 233 240 245 251 252 254 251 249 279 301 298 303
228 226 224 221 216 213 211 209 207 208 208 205 204 205 201 200 200 200 198 198 202 205 209 213 219 220 221 226 230 235 237 240 243 250 259 268 276 279 280 285 290 287 267 254 245 240 236 234 238 238 238 243 248 248 245 244 250 254 251 262 281 284 287
228 229 228 226 223 221 220 219 218 216 212 207 206 205 204 201 203 200 196 202 207 212 216 223 225 224 225 227 229 232 235 238 239 243 247 256 264 272 275 280 283 285 274 262 252 248 245 244 245 245 246 249 251 252 250 248 252 254 257 260 265 269 276
226 226 226 226 227 228 227 227 227 224 220 214 209 210 208 205 204 200 196 200 204 215 227 230 236 235 234 236 236 236 237 239 238 238 238 241 247 255 263 266 270 276 277 270 260 253 251 250 250 249 250 254 255 254 255 254 254 257 259 260 264 266 269
222 221 218 220 222 226 227 228 228 227 225 219 212 213 212 210 208 203 199 200 205 215 228 232 237 242 242 244 243 244 244 242 244 243 238 234 234 241 248 255 262 270 274 273 264 258 255 255 254 254 257 258 258 260 259 256 255 258 263 264 266 268 270
221 219 216 217 218 223 226 227 226 224 225 221 215 214 213 212 210 208 205 205 208 220 228 233 235 238 242 245 247 248 249 249 248 244 242 238 237 235 234 233 235 242 247 242 240 251 259 256 255 259 259 263 268 267 261 260 263 264 262 265 268 274 276
218 216 215 216 218 221 224 226 227 225 223 221 220 216 213 212 214 212 212 212 213 223 232 235 239 240 242 244 245 247 250 250 251 251 248 246 244 242 238 236 237 233 236 238 232 236 238 251 253 257 259 259 255 259 270 271 268 270 271 272 272 272 275
217 220 222 224 224 222 224 224 226 226 224 221 225 223 216 215 215 216 217 217 219 227 232 235 242 243 244 244 244 248 251 252 252 251 251 250 248 245 245 241 234 231 230 236 237 246 251 248 248 251 259 267 264 256 261 269 272 275 275 275 275 277 278
221 229 234 235 234 232 229 227 227 226 226 226 227 227 224 221 220 220 221 223 226 231 234 236 242 245 243 242 243 246 247 248 252 254 253 251 250 250 250 247 245 237 232 233 240 241 245 251 254 254 255 260 267 266 258 263 271 276 276 277 278 278 280